EW4138 Weather Reports


time (UTC)temp
C
wind
direction
speed
KPH
gust
KPH
rain 1hr
cm
rain 24hr
cm
rain mn
cm
humidity
%
barometer
mb
20260507052334 7 37 0.0 8.0 0.00 0.64 0.61 95 1009.4
20260507051837 7 1 1.6 9.7 0.00 0.64 0.61 95 1009.3
20260507051331 7 0 1.6 9.7 0.00 0.64 0.61 95 1009.4
20260507051130 7 356 1.6 8.0 0.00 0.64 0.61 95 1009.4
20260507050332 7 354 1.6 6.4 0.00 0.64 0.61 95 1009.3
20260507045832 7 343 0.0 9.7 0.00 0.64 0.61 95 1009.2
20260507045335 7 359 0.0 9.7 0.00 0.64 0.61 95 1009.2
20260507044831 7 30 1.6 8.0 0.00 0.64 0.61 95 1009.1
20260507044331 7 359 1.6 8.0 0.00 0.64 0.61 95 1009.1
20260507043833 7 12 1.6 9.7 0.00 0.64 0.61 95 1009.0
20260507043331 7 2 0.0 9.7 0.00 0.64 0.61 95 1008.9
20260507043133 7 25 1.6 9.7 0.00 0.64 0.61 95 1008.9
20260507042331 7 1 3.2 11.3 0.00 0.64 0.61 95 1008.8
20260507042139 8 1 1.6 11.3 0.00 0.64 0.61 95 1008.7
20260507041332 8 4 0.0 9.7 0.00 0.64 0.61 95 1008.7
20260507040832 8 347 0.0 6.4 0.00 0.64 0.61 95 1008.6
20260507040620 8 8 0.0 1.6 0.00 0.64 0.61 95 1008.5
20260507035831 8 16 0.0 6.4 0.03 0.64 0.61 95 1008.5
20260507035627 8 16 1.6 8.0 0.03 0.64 0.61 95 1008.4
20260507034913 8 11 1.6 8.0 0.03 0.64 0.61 95 1008.3
20260507033834 8 359 1.6 12.9 0.03 0.64 0.61 95 1008.2
20260507033334 8 1 0.0 8.0 0.05 0.64 0.61 95 1008.2
20260507032834 8 8 0.0 8.0 0.05 0.64 0.61 95 1008.2
20260507032333 8 30 1.6 8.0 0.05 0.64 0.61 95 1008.1
20260507031833 8 354 1.6 8.0 0.08 0.64 0.61 95 1008.1
20260507031334 8 4 3.2 14.5 0.10 0.64 0.61 95 1008.0
20260507030834 8 5 3.2 14.5 0.13 0.64 0.61 95 1008.0
20260507030334 8 359 1.6 12.9 0.13 0.64 0.61 95 1008.0
20260507025824 8 1 1.6 9.7 0.13 0.61 0.61 95 1008.0
20260507025324 8 46 1.6 8.0 0.15 0.61 0.61 95 1007.9
20260507024822 8 67 3.2 11.3 0.15 0.61 0.61 94 1007.9
20260507024322 8 338 3.2 14.5 0.20 0.61 0.61 94 1007.8
20260507024118 8 353 3.2 14.5 0.23 0.61 0.61 94 1007.7
20260507023320 8 0 3.2 11.3 0.23 0.61 0.58 94 1007.6
20260507022820 8 8 4.8 12.9 0.25 0.58 0.56 94 1007.5
20260507022318 8 25 6.4 14.5 0.28 0.58 0.56 94 1007.4
20260507022126 8 22 4.8 14.5 0.30 0.56 0.53 94 1007.5
20260507021307 8 27 3.2 12.9 0.33 0.53 0.51 94 1007.5
20260507020806 8 6 4.8 14.5 0.33 0.51 0.51 94 1007.4
20260507020307 8 20 6.4 14.5 0.33 0.51 0.48 94 1007.5
20260507015805 8 39 4.8 12.9 0.33 0.51 0.46 94 1007.5
20260507015307 8 0 3.2 14.5 0.28 0.46 0.43 94 1007.5
20260507014804 8 25 3.2 14.5 0.30 0.46 0.43 94 1007.5
20260507014303 8 34 3.2 12.9 0.28 0.43 0.38 94 1007.6
20260507013803 8 4 3.2 11.3 0.23 0.38 0.36 94 1007.6
20260507013306 8 31 3.2 12.9 0.23 0.36 0.33 94 1007.6
20260507012805 8 15 3.2 12.9 0.23 0.33 0.30 94 1007.6
20260507012306 8 0 4.8 12.9 0.20 0.30 0.28 94 1007.5
20260507011805 8 32 3.2 12.9 0.18 0.25 0.23 93 1007.5
20260507011304 8 10 4.8 12.9 0.15 0.23 0.20 93 1007.5
20260507010806 8 1 4.8 12.9 0.15 0.20 0.18 94 1007.5
20260507010303 8 30 4.8 11.3 0.15 0.18 0.15 93 1007.5
20260507005806 8 4 3.2 11.3 0.15 0.18 0.15 93 1007.5
20260507005305 8 10 1.6 11.3 0.15 0.18 0.15 93 1007.5
20260507005058 8 1 1.6 11.3 0.15 0.18 0.15 93 1007.6
20260507004250 8 25 1.6 11.3 0.13 0.15 0.13 93 1007.5
20260507003748 8 28 1.6 11.3 0.13 0.15 0.13 93 1007.5
20260507003247 8 29 3.2 11.3 0.10 0.15 0.10 92 1007.6
20260507002745 8 4 1.6 9.7 0.08 0.13 0.08 92 1007.6
20260507002244 8 1 1.6 9.7 0.08 0.15 0.08 92 1007.5
20260507001743 9 44 1.6 9.7 0.05 0.13 0.05 92 1007.5
20260507001244 9 1 3.2 9.7 0.05 0.13 0.05 91 1007.6
20260507000740 9 9 1.6 8.0 0.05 0.13 0.03 91 1007.5
20260507000234 9 352 1.6 11.3 0.03 0.13 0.03 91 1007.6
20260506235732 9 358 1.6 11.3 0.00 0.15 0.00 90 1007.5
20260506235528 10 357 1.6 9.7 0.00 0.20 0.00 90 1007.5
20260506235031 10 12 0.0 6.4 0.00 0.23 0.00 90 1007.5
20260506234226 10 12 1.6 6.4 0.00 0.25 0.00 90 1007.5
20260506233717 10 23 1.6 8.0 0.00 0.33 0.00 90 1007.4
20260506233207 10 346 1.6 9.7 0.00 0.36 0.00 90 1007.3
20260506232957 10 359 1.6 9.7 0.00 0.43 0.00 90 1007.3
20260506232459 10 34 1.6 9.7 0.00 0.46 0.00 90 1007.3
20260506231705 10 1 1.6 11.3 0.00 0.51 0.00 90 1007.2
20260506231206 10 340 3.2 14.5 0.00 0.51 0.00 90 1007.2
20260506230947 10 8 3.2 14.5 0.00 0.64 0.00 90 1007.2
20260506230150 10 356 1.6 12.9 0.00 0.76 0.00 90 1007.3
20260506225650 10 1 1.6 11.3 0.00 0.79 0.00 90 1007.2
20260506225140 10 1 3.2 11.3 0.00 0.79 0.00 90 1007.1
20260506224633 10 35 3.2 11.3 0.00 0.79 0.00 90 1007.1
20260506224132 10 39 4.8 16.1 0.00 0.79 0.00 90 1007.2
20260506223626 10 43 6.4 16.1 0.00 0.79 0.00 90 1007.2
20260506223110 10 44 6.4 17.7 0.00 0.81 0.00 90 1007.0
20260506222606 10 41 6.4 17.7 0.00 0.81 0.00 90 1007.0
20260506222105 10 56 4.8 14.5 0.00 0.81 0.00 90 1007.0
20260506221605 10 53 4.8 14.5 0.00 0.81 0.00 90 1007.0
20260506221400 10 31 3.2 14.5 0.00 0.81 0.00 90 1007.0
20260506220606 10 72 1.6 11.3 0.00 0.81 0.00 90 1006.9
20260506220358 10 31 1.6 9.7 0.00 0.84 0.00 90 1007.0
20260506215558 10 33 3.2 9.7 0.00 0.86 0.84 90 1007.0
20260506215054 10 33 3.2 12.9 0.00 0.89 0.84 90 1006.8
20260506214555 10 0 3.2 12.9 0.00 0.91 0.84 89 1006.8
20260506214052 10 34 3.2 11.3 0.00 1.02 0.84 90 1006.6
20260506213552 11 306 3.2 11.3 0.00 1.30 0.84 90 1006.6
20260506213052 11 15 1.6 11.3 0.00 1.35 0.84 89 1006.6
20260506212550 11 359 1.6 11.3 0.00 1.35 0.84 89 1006.6
20260506212050 11 20 1.6 11.3 0.00 1.37 0.84 89 1006.5
20260506211850 11 2 1.6 12.9 0.00 1.40 0.84 89 1006.5
20260506211355 11 1 1.6 12.9 0.00 1.40 0.84 89 1006.4
20260506210538 11 48 3.2 12.9 0.00 1.40 0.84 89 1006.4
20260506210039 11 15 3.2 12.9 0.00 1.40 0.84 89 1006.4
20260506205538 11 14 1.6 9.7 0.00 1.40 0.84 89 1006.2
20260506205033 11 358 1.6 12.9 0.00 1.40 0.84 89 1006.3
20260506204531 11 0 3.2 12.9 0.00 1.40 0.84 89 1006.3
20260506204033 11 1 4.8 16.1 0.00 1.40 0.84 88 1006.3
20260506203531 11 1 4.8 16.1 0.00 1.40 0.84 88 1006.3
20260506203031 11 0 3.2 11.3 0.00 1.40 0.84 89 1006.3
20260506202836 11 0 3.2 9.7 0.00 1.40 0.84 89 1006.3
20260506202326 11 27 4.8 12.9 0.00 1.40 0.84 89 1006.4
20260506201533 11 27 3.2 12.9 0.00 1.40 0.84 88 1006.4
20260506201022 12 50 3.2 12.9 0.00 1.40 0.84 88 1006.4
20260506200514 12 56 3.2 11.3 0.00 1.40 0.84 88 1006.4
20260506200308 12 342 3.2 11.3 0.00 1.40 0.84 88 1006.3
20260506195801 12 307 3.2 11.3 0.00 1.40 0.84 89 1006.4
20260506194951 12 34 1.6 11.3 0.00 1.40 0.84 89 1006.0
20260506194450 12 18 1.6 9.7 0.00 1.40 0.84 89 1005.9
20260506193952 12 23 1.6 8.0 0.00 1.40 0.84 89 1005.8
20260506193445 12 1 0.0 8.0 0.00 1.40 0.84 89 1005.8
20260506192939 12 0 1.6 11.3 0.00 1.40 0.84 89 1005.8
20260506192439 12 340 1.6 11.3 0.00 1.40 0.84 89 1005.8
20260506192239 12 359 1.6 11.3 0.00 1.40 0.84 89 1005.7
20260506191737 12 3 1.6 9.7 0.00 1.40 0.84 89 1005.7
20260506191230 12 14 0.0 8.0 0.00 1.40 0.84 89 1005.7
20260506190432 12 342 0.0 8.0 0.00 1.40 0.84 88 1005.6
20260506185933 12 359 0.0 8.0 0.00 1.40 0.84 88 1005.6
20260506185432 12 0 0.0 8.0 0.00 1.40 0.84 88 1005.6
20260506184936 12 17 0.0 8.0 0.00 1.40 0.84 88 1005.5
20260506184435 12 6 1.6 9.7 0.00 1.40 0.84 88 1005.5
20260506184024 12 6 1.6 9.7 0.00 1.40 0.84 87 1005.5
20260506182932 12 22 3.2 12.9 0.00 1.40 0.84 87 1005.4
20260506182738 12 1 4.8 12.9 0.00 1.40 0.84 87 1005.4
20260506181933 13 6 4.8 12.9 0.00 1.40 0.84 86 1005.4
20260506181434 13 1 3.2 12.9 0.00 1.40 0.84 86 1005.3
20260506181234 13 0 3.2 11.3 0.00 1.40 0.84 86 1005.4
20260506180731 13 31 4.8 14.5 0.00 1.40 0.84 85 1005.4
20260506175933 13 1 4.8 14.5 0.00 1.40 0.84 85 1005.3
20260506175431 13 354 3.2 12.9 0.00 1.40 0.84 86 1005.2
20260506175225 13 16 1.6 11.3 0.00 1.40 0.84 86 1005.2
20260506174425 13 9 1.6 9.7 0.00 1.40 0.84 86 1005.2
20260506173925 13 0 1.6 12.9 0.00 1.40 0.84 86 1005.1
20260506173424 13 2 0.0 12.9 0.00 1.40 0.84 86 1005.1
20260506172923 13 355 1.6 8.0 0.00 1.40 0.84 85 1005.0
20260506172425 13 16 1.6 9.7 0.00 1.40 0.84 85 1005.0
20260506171915 14 0 3.2 11.3 0.00 1.40 0.84 84 1004.9
20260506171717 14 6 3.2 12.9 0.00 1.40 0.84 83 1004.9
20260506170913 14 8 4.8 16.1 0.00 1.40 0.84 83 1004.9
20260506170412 15 359 4.8 16.1 0.00 1.40 0.84 83 1004.7
20260506165906 15 347 3.2 14.5 0.00 1.40 0.84 82 1004.7
20260506165406 15 350 1.6 14.5 0.00 1.40 0.84 81 1004.5
20260506164905 15 302 3.2 16.1 0.00 1.40 0.84 81 1004.5
20260506164405 15 327 3.2 16.1 0.00 1.40 0.84 81 1004.5
20260506163905 15 8 1.6 14.5 0.00 1.40 0.84 81 1004.6
20260506163713 15 4 1.6 12.9 0.00 1.40 0.84 80 1004.6
20260506162909 15 328 4.8 16.1 0.00 1.40 0.84 80 1004.7
20260506162407 15 1 4.8 16.1 0.00 1.40 0.84 80 1004.7
20260506161859 16 355 4.8 16.1 0.00 1.40 0.84 80 1004.7
20260506161727 16 359 3.2 16.1 0.00 1.40 0.84 79 1004.8
20260506160858 16 0 3.2 14.5 0.00 1.40 0.84 79 1004.8
20260506160355 16 357 1.6 11.3 0.00 1.40 0.84 79 1004.8
20260506160226 16 321 1.6 9.7 0.00 1.40 0.84 79 1004.9
20260506155341 16 8 1.6 11.3 0.00 1.40 0.84 78 1004.8
20260506155138 16 333 3.2 11.3 0.00 1.40 0.84 78 1004.8
20260506154737 17 26 4.8 14.5 0.00 1.40 0.84 76 1004.9
20260506153333 17 346 4.8 16.1 0.00 1.40 0.84 76 1004.8
20260506152836 17 344 4.8 16.1 0.00 1.40 0.84 76 1005.0
20260506152335 17 13 6.4 19.3 0.00 1.40 0.84 76 1004.9
20260506151834 17 345 4.8 19.3 0.00 1.40 0.84 75 1005.0
20260506151637 17 25 3.2 16.1 0.00 1.40 0.84 76 1005.0
20260506150833 17 357 3.2 16.1 0.00 1.40 0.84 76 1004.9
20260506150628 17 13 3.2 14.5 0.00 1.40 0.84 75 1004.9
20260506145834 17 288 4.8 14.5 0.00 1.40 0.84 75 1004.9
20260506145334 17 292 4.8 14.5 0.00 1.40 0.84 76 1004.8
20260506144838 17 294 4.8 14.5 0.00 1.40 0.84 75 1004.9
20260506144337 17 293 1.6 9.7 0.00 1.40 0.84 75 1004.9
20260506144129 17 309 3.2 11.3 0.00 1.40 0.84 75 1004.9
20260506143646 17 359 3.2 11.3 0.00 1.40 0.84 73 1004.8
20260506142835 18 300 3.2 9.7 0.00 1.40 0.84 74 1004.8
20260506142335 17 71 3.2 9.7 0.00 1.40 0.84 76 1004.7
20260506141835 17 9 3.2 12.9 0.00 1.40 0.84 75 1004.7
20260506141335 17 291 3.2 12.9 0.00 1.40 0.84 73 1004.7
20260506140834 17 314 1.6 11.3 0.00 1.40 0.84 76 1004.8
20260506140332 17 312 3.2 12.9 0.00 1.40 0.84 76 1004.9
20260506135832 17 330 4.8 12.9 0.00 1.40 0.84 75 1004.9
20260506135335 17 289 3.2 12.9 0.00 1.40 0.84 75 1005.0
20260506134835 17 294 3.2 12.9 0.00 1.40 0.84 75 1005.0
20260506134334 17 340 1.6 9.7 0.00 1.40 0.84 74 1004.9
20260506134126 18 354 3.2 16.1 0.00 1.40 0.84 72 1004.9
20260506133333 18 248 3.2 16.1 0.00 1.40 0.84 71 1004.9
20260506133126 18 326 1.6 9.7 0.00 1.40 0.84 71 1004.9
20260506132337 18 252 3.2 12.9 0.00 1.40 0.84 73 1004.9
20260506131832 17 298 4.8 16.1 0.00 1.40 0.84 73 1004.9
20260506131332 17 278 4.8 16.1 0.00 1.40 0.84 75 1005.0
20260506130834 17 303 4.8 12.9 0.00 1.40 0.84 75 1004.9
20260506130332 17 293 4.8 12.9 0.00 1.40 0.84 74 1005.0
20260506125833 18 333 4.8 16.1 0.00 1.40 0.84 73 1004.9
20260506125332 18 304 4.8 17.7 0.00 1.40 0.84 74 1004.9
20260506124929 18 292 4.8 17.7 0.00 1.40 0.84 72 1004.9
20260506123829 18 276 8.0 19.3 0.00 1.40 0.84 72 1005.0
20260506123328 18 276 6.4 14.5 0.00 1.40 0.84 75 1005.0
20260506122832 18 244 6.4 17.7 0.00 1.40 0.84 76 1004.9
20260506122330 18 326 8.0 20.9 0.00 1.40 0.84 73 1004.8
20260506121829 18 257 8.0 20.9 0.00 1.40 0.84 72 1004.9
20260506121621 18 201 6.4 17.7 0.00 1.40 0.84 72 1004.8
20260506120824 18 299 8.0 22.5 0.00 1.40 0.84 73 1004.7
20260506120325 18 273 9.7 22.5 0.00 1.40 0.84 73 1004.7
20260506115821 17 235 8.0 20.9 0.00 1.40 0.84 74 1004.7
20260506115321 17 272 8.0 20.9 0.00 1.40 0.84 75 1004.8
20260506114816 17 275 8.0 19.3 0.00 1.40 0.84 76 1004.8
20260506114403 17 282 9.7 20.9 0.00 1.40 0.84 76 1004.8
20260506113306 17 219 8.0 19.3 0.00 1.40 0.84 76 1004.9
20260506112804 17 201 4.8 17.7 0.00 1.40 0.84 78 1004.9
20260506112307 16 258 6.4 17.7 0.00 1.40 0.84 77 1005.0
20260506112059 17 240 6.4 20.9 0.00 1.40 0.84 77 1004.9
20260506111305 16 283 8.0 22.5 0.00 1.40 0.84 79 1004.9
20260506110805 16 286 8.0 24.1 0.00 1.40 0.84 79 1004.9
20260506110259 16 210 6.4 24.1 0.00 1.40 0.84 78 1004.9
20260506110050 16 232 6.4 24.1 0.00 1.40 0.84 78 1004.8
20260506105236 16 271 8.0 24.1 0.00 1.40 0.84 77 1004.8
20260506104735 17 231 8.0 22.5 0.00 1.40 0.84 78 1004.7
20260506104235 17 278 9.7 24.1 0.00 1.40 0.84 77 1004.7
20260506103735 17 244 9.7 24.1 0.00 1.40 0.84 76 1004.5
20260506103234 17 359 9.7 25.7 0.00 1.40 0.84 78 1004.5
20260506103029 16 251 9.7 25.7 0.00 1.40 0.84 77 1004.5
20260506102531 16 250 9.7 25.7 0.00 1.40 0.84 77 1004.5
20260506101732 17 227 8.0 25.7 0.00 1.40 0.84 77 1004.4
20260506101535 17 285 8.0 24.1 0.00 1.40 0.84 77 1004.5
20260506100732 17 199 9.7 29.0 0.00 1.40 0.84 78 1004.3
20260506100533 17 190 11.3 29.0 0.00 1.40 0.84 79 1004.4
20260506095733 17 198 9.7 24.1 0.00 1.40 0.84 80 1004.3
20260506095232 16 274 8.0 24.1 0.00 1.40 0.84 82 1004.3
20260506094733 16 248 8.0 20.9 0.00 1.40 0.84 83 1004.3
20260506094232 16 185 8.0 20.9 0.00 1.40 0.84 82 1004.1
20260506093733 16 300 8.0 25.7 0.00 1.40 0.84 82 1004.2
20260506093238 16 226 11.3 27.4 0.00 1.40 0.84 81 1004.0
20260506092734 16 254 9.7 27.4 0.00 1.40 0.84 80 1004.0
20260506092526 16 195 11.3 33.8 0.00 1.40 0.84 80 1003.8
20260506091813 16 249 12.9 33.8 0.00 1.40 0.84 79 1003.7
20260506090732 17 231 12.9 30.6 0.00 1.40 0.84 78 1003.6
20260506090233 16 188 12.9 30.6 0.00 1.40 0.84 79 1003.6
20260506085733 16 224 11.3 27.4 0.00 1.40 0.84 81 1003.4
20260506085233 16 218 9.7 25.7 0.00 1.40 0.84 83 1003.6
20260506084732 15 253 9.7 24.1 0.00 1.40 0.84 83 1003.5
20260506084234 16 252 9.7 24.1 0.00 1.40 0.84 82 1003.4
20260506083734 16 266 9.7 32.2 0.00 1.40 0.84 82 1003.1
20260506083234 16 219 11.3 32.2 0.00 1.40 0.84 80 1003.2
20260506082733 16 256 9.7 32.2 0.03 1.40 0.84 79 1003.1
20260506082233 16 258 9.7 27.4 0.03 1.40 0.84 81 1003.0
20260506082033 16 217 9.7 25.7 0.03 1.40 0.84 82 1003.0
20260506081232 15 281 8.0 25.7 0.03 1.40 0.84 83 1003.1
20260506080733 15 231 9.7 27.4 0.03 1.40 0.84 83 1003.0
20260506080233 15 256 9.7 27.4 0.03 1.40 0.84 84 1003.1
20260506073228 15 191 11.3 29.0 0.03 1.42 0.84 86 1003.0
20260506072728 15 195 8.0 22.5 0.00 1.40 0.81 88 1003.1
20260506072229 15 176 8.0 16.1 0.00 1.40 0.81 89 1003.0
20260506071722 15 190 6.4 20.9 0.00 1.40 0.81 90 1003.1
20260506071226 14 202 6.4 20.9 0.00 1.40 0.81 90 1003.1
20260506070712 14 200 4.8 16.1 0.00 1.40 0.81 91 1003.1
20260506070500 14 221 4.8 17.7 0.00 1.40 0.81 91 1003.1
20260506062204 13 180 3.2 16.1 0.00 1.42 0.81 93 1002.9
20260506061706 13 236 3.2 16.1 0.00 1.42 0.81 93 1002.9
20260506061202 13 160 1.6 9.7 0.00 1.45 0.81 94 1003.0
20260506060654 13 131 0.0 9.7 0.00 1.45 0.81 94 1003.0
20260506060144 13 148 0.0 8.0 0.00 1.45 0.81 94 1003.0